Tracking 29034 objects as of 24-Jun-2024
HD Live streaming from Space Station
objects crossing your sky now

OPS 1264 (DMSP 4A F4)

Track OPS 1264 (DMSP 4A F4) now!
10-day predictions
OPS 1264 (DMSP 4A F4) is classified as:


NORAD ID: 2980
Int'l Code: 1967-096A
Perigee: 628.2 km
Apogee: 764.7 km
Inclination: 99.2 °
Period: 98.5 minutes
Semi major axis: 7067 km
RCS: 0.6338 m2 (medium)
Launch date: October 11, 1967
Source: United States (US)
Launch site: AIR FORCE WESTERN TEST RANGE (AFWTR)
Your satellite tracking list
Your tracking list is empty




NASA's NSSDC Master Catalog

Two Line Element Set (TLE):
1  2980U 67096A   24176.56338480  .00000686  00000-0  14242-3 0  9990
2  2980  99.2245 158.0464 0096537 146.8676 213.8618 14.61189970  2465
Source of the keplerian elements: AFSPC